• In Austria
  • List of Countries
  • For 7 days
  • Water Temperature
  • Satellite Maps
  • Weather Map
  • News
  • Weather Widgets
  • user-avatar
    Login

    Hourly Weather Parakou

    Today, 14 August, Tuesday

    Time Temperature Precipitation Wind Pressure Humidity
    00:00 +23°C° 0 mm 1 mps 729 mmHg 97%
    01:00 +23°C° 0 mm 1 mps 728 mmHg 97%
    02:00 +23°C° 0 mm 1 mps 728 mmHg 97%
    03:00 +23°C° 0 mm 1 mps 728 mmHg 98%
    04:00 +23°C° 0.3 mm 1 mps 728 mmHg 98%
    05:00 +23°C° 0.3 mm 1 mps 729 mmHg 98%
    06:00 +21°C° 0 mm 0 mps 729 mmHg 98%
    07:00 +22°C° 0.3 mm 0 mps 729 mmHg 95%
    08:00 +23°C° 0.3 mm 0 mps 730 mmHg 92%
    09:00 +23°C° 0.3 mm 0 mps 730 mmHg 89%
    10:00 +25°C° 0.1 mm 0 mps 730 mmHg 81%
    11:00 +27°C° 0.1 mm 0 mps 730 mmHg 74%
    12:00 +29°C° 0.1 mm 0 mps 730 mmHg 66%
    13:00 +29°C° 0 mm 0 mps 729 mmHg 65%
    14:00 +32°C° 0 mm 1 mps 729 mmHg 64%
    15:00 +32°C° 0 mm 1 mps 728 mmHg 62%
    16:00 +30°C° 0 mm 1 mps 728 mmHg 67%
    17:00 +29°C° 0 mm 1 mps 728 mmHg 72%
    18:00 +28°C° 0 mm 1 mps 728 mmHg 77%
    19:00 +27°C° 0.1 mm 1 mps 728 mmHg 80%
    20:00 +27°C° 0.1 mm 1 mps 729 mmHg 82%
    21:00 +26°C° 0.1 mm 1 mps 729 mmHg 85%
    22:00 +26°C° 0 mm 1 mps 729 mmHg 87%
    23:00 +25°C° 0 mm 1 mps 729 mmHg 90%

    Tomorrow, 15 August, Wednesday

    Time Temperature Precipitation Wind Pressure Humidity
    00:00 +25°C° 0 mm 1 mps 729 mmHg 92%
    01:00 +25°C° 0 mm 2 mps 729 mmHg 93%
    02:00 +24°C° 0 mm 2 mps 729 mmHg 94%
    03:00 +24°C° 0 mm 2 mps 728 mmHg 95%
    04:00 +24°C° 0.1 mm 2 mps 729 mmHg 95%
    05:00 +24°C° 0.1 mm 2 mps 729 mmHg 95%
    06:00 +24°C° 0.1 mm 2 mps 729 mmHg 95%
    07:00 +24°C° 0 mm 2 mps 729 mmHg 93%
    08:00 +25°C° 0 mm 2 mps 730 mmHg 91%
    09:00 +25°C° 0 mm 2 mps 730 mmHg 89%
    10:00 +26°C° 0.1 mm 3 mps 730 mmHg 86%
    11:00 +27°C° 0.1 mm 3 mps 730 mmHg 82%
    12:00 +28°C° 0.1 mm 3 mps 730 mmHg 78%
    13:00 +29°C° 0.2 mm 3 mps 729 mmHg 75%
    14:00 +30°C° 0.2 mm 2 mps 729 mmHg 71%
    15:00 +30°C° 0.2 mm 2 mps 728 mmHg 68%
    16:00 +29°C° 0.4 mm 2 mps 728 mmHg 74%
    17:00 +28°C° 0.4 mm 2 mps 728 mmHg 80%
    18:00 +27°C° 0.4 mm 2 mps 728 mmHg 86%
    19:00 +26°C° 1.2 mm 2 mps 729 mmHg 89%
    20:00 +25°C° 1.2 mm 1 mps 729 mmHg 92%
    21:00 +25°C° 1.2 mm 1 mps 730 mmHg 95%
    22:00 +24°C° 0.3 mm 1 mps 730 mmHg 95%
    23:00 +24°C° 0.3 mm 1 mps 730 mmHg 96%

    Day after tomorrow, 16 August, Thursday

    Time Temperature Precipitation Wind Pressure Humidity
    00:00 +24°C° 0.3 mm 1 mps 730 mmHg 96%
    01:00 +24°C° 0 mm 1 mps 730 mmHg 97%
    02:00 +23°C° 0 mm 1 mps 730 mmHg 97%
    03:00 +23°C° 0 mm 1 mps 729 mmHg 97%
    04:00 +23°C° 0 mm 2 mps 729 mmHg 97%
    05:00 +23°C° 0 mm 2 mps 730 mmHg 98%
    06:00 +23°C° 0 mm 2 mps 730 mmHg 98%
    07:00 +24°C° 0 mm 2 mps 730 mmHg 94%
    08:00 +25°C° 0 mm 2 mps 731 mmHg 90%
    09:00 +26°C° 0 mm 3 mps 731 mmHg 86%
    10:00 +28°C° 0.3 mm 3 mps 731 mmHg 80%
    11:00 +29°C° 0.3 mm 3 mps 730 mmHg 74%
    12:00 +30°C° 0.3 mm 3 mps 730 mmHg 69%
    13:00 +30°C° 1.1 mm 2 mps 729 mmHg 70%
    14:00 +30°C° 1.1 mm 2 mps 728 mmHg 72%
    15:00 +30°C° 1.1 mm 2 mps 727 mmHg 74%
    16:00 +29°C° 0.9 mm 2 mps 728 mmHg 79%
    17:00 +28°C° 0.9 mm 2 mps 728 mmHg 84%
    18:00 +27°C° 0.9 mm 1 mps 728 mmHg 89%
    19:00 +26°C° 0.6 mm 1 mps 729 mmHg 91%
    20:00 +25°C° 0.6 mm 1 mps 729 mmHg 93%
    21:00 +25°C° 0.6 mm 1 mps 730 mmHg 94%
    22:00 +25°C° 0.1 mm 2 mps 730 mmHg 95%
    23:00 +24°C° 0.1 mm 2 mps 730 mmHg 95%

    17 August, Friday

    Time Temperature Precipitation Wind Pressure Humidity
    00:00 +24°C° 0.1 mm 2 mps 729 mmHg 95%
    01:00 +24°C° 0.1 mm 2 mps 729 mmHg 96%
    02:00 +24°C° 0.1 mm 1 mps 729 mmHg 96%
    03:00 +24°C° 0.1 mm 1 mps 729 mmHg 96%
    04:00 +24°C° 0 mm 1 mps 729 mmHg 97%
    05:00 +23°C° 0 mm 2 mps 729 mmHg 97%
    06:00 +23°C° 0 mm 2 mps 729 mmHg 97%
    07:00 +24°C° 0 mm 2 mps 730 mmHg 94%
    08:00 +25°C° 0 mm 2 mps 730 mmHg 91%
    09:00 +26°C° 0 mm 2 mps 731 mmHg 88%
    10:00 +27°C° 0.4 mm 2 mps 730 mmHg 84%
    11:00 +28°C° 0.4 mm 3 mps 730 mmHg 81%
    12:00 +29°C° 0.4 mm 3 mps 729 mmHg 77%
    13:00 +29°C° 2.2 mm 2 mps 729 mmHg 79%
    14:00 +28°C° 2.2 mm 2 mps 728 mmHg 81%
    15:00 +28°C° 2.2 mm 1 mps 727 mmHg 84%
    16:00 +27°C° 1.3 mm 1 mps 728 mmHg 87%
    17:00 +26°C° 1.3 mm 1 mps 728 mmHg 90%
    18:00 +25°C° 1.3 mm 1 mps 728 mmHg 93%
    19:00 +25°C° 0.2 mm 1 mps 728 mmHg 94%
    20:00 +25°C° 0.2 mm 1 mps 728 mmHg 95%
    21:00 +24°C° 0.2 mm 2 mps 729 mmHg 96%
    22:00 +24°C° 0 mm 2 mps 729 mmHg 96%
    23:00 +24°C° 0 mm 2 mps 728 mmHg 97%

    18 August, Saturday

    Time Temperature Precipitation Wind Pressure Humidity
    00:00 +24°C° 0 mm 2 mps 728 mmHg 97%
    01:00 +24°C° 0.1 mm 2 mps 728 mmHg 97%
    02:00 +23°C° 0.1 mm 1 mps 728 mmHg 97%
    03:00 +23°C° 0.1 mm 1 mps 727 mmHg 97%
    04:00 +23°C° 0.2 mm 1 mps 728 mmHg 98%
    05:00 +23°C° 0.2 mm 1 mps 728 mmHg 98%
    06:00 +23°C° 0.2 mm 1 mps 729 mmHg 98%
    07:00 +24°C° 0.2 mm 1 mps 729 mmHg 94%
    08:00 +25°C° 0.2 mm 2 mps 730 mmHg 91%
    09:00 +26°C° 0.2 mm 2 mps 730 mmHg 87%
    10:00 +27°C° 0.9 mm 3 mps 730 mmHg 85%
    11:00 +27°C° 0.9 mm 3 mps 729 mmHg 84%
    12:00 +28°C° 0.9 mm 3 mps 729 mmHg 82%
    13:00 +28°C° 1.4 mm 3 mps 728 mmHg 83%
    14:00 +27°C° 1.4 mm 2 mps 727 mmHg 85%
    15:00 +27°C° 1.4 mm 2 mps 727 mmHg 86%
    16:00 +26°C° 0.5 mm 2 mps 727 mmHg 88%
    17:00 +26°C° 0.5 mm 2 mps 727 mmHg 91%
    18:00 +25°C° 0.5 mm 2 mps 728 mmHg 94%
    19:00 +25°C° 0 mm 1 mps 728 mmHg 94%
    20:00 +24°C° 0 mm 1 mps 729 mmHg 95%
    21:00 +24°C° 0 mm 1 mps 729 mmHg 96%
    22:00 +24°C° 0 mm 1 mps 729 mmHg 96%
    23:00 +24°C° 0 mm 1 mps 729 mmHg 97%

    19 August, Sunday

    Time Temperature Precipitation Wind Pressure Humidity
    00:00 +23°C° 0 mm 1 mps 729 mmHg 97%
    01:00 +23°C° 0 mm 1 mps 728 mmHg 97%
    02:00 +23°C° 0 mm 1 mps 728 mmHg 98%
    03:00 +23°C° 0 mm 1 mps 728 mmHg 98%
    04:00 +23°C° 0 mm 1 mps 728 mmHg 98%
    05:00 +23°C° 0 mm 1 mps 729 mmHg 98%
    06:00 +23°C° 0 mm 1 mps 729 mmHg 98%
    07:00 +24°C° 0.3 mm 1 mps 730 mmHg 95%
    08:00 +25°C° 0.3 mm 2 mps 730 mmHg 92%
    09:00 +26°C° 0.3 mm 2 mps 731 mmHg 89%
    10:00 +26°C° 1 mm 2 mps 730 mmHg 87%
    11:00 +27°C° 1 mm 2 mps 730 mmHg 86%
    12:00 +27°C° 1 mm 2 mps 729 mmHg 84%
    13:00 +28°C° 1.1 mm 2 mps 729 mmHg 83%
    14:00 +28°C° 1.1 mm 2 mps 728 mmHg 82%
    15:00 +29°C° 1.1 mm 2 mps 727 mmHg 81%
    16:00 +27°C° 2.2 mm 2 mps 728 mmHg 85%
    17:00 +26°C° 2.2 mm 2 mps 728 mmHg 89%
    18:00 +25°C° 2.2 mm 2 mps 728 mmHg 93%
    19:00 +25°C° 1.2 mm 2 mps 728 mmHg 93%
    20:00 +25°C° 1.2 mm 2 mps 729 mmHg 94%
    21:00 +24°C° 1.2 mm 2 mps 730 mmHg 94%
    22:00 +24°C° 0.2 mm 1 mps 729 mmHg 94%
    23:00 +24°C° 0.2 mm 1 mps 729 mmHg 95%
    Show more